Regional Weather Roundup
Issued by NWS

Home | Current Version | Previous Version | Text Only | Print | Product List | Glossary On
Versions: 1 2 3 4 5 6 7 8 9 10 11 12 13 14 15 16 17 18 19 20 21 22 23 24 25 26 27 28 29 30 31 32 33 34 35 36 37 38 39 40 41 42 43 44 45 46 47 48 49 50
000
ASUS46 KSEW 091210
RWRWA

WASHINGTON REGIONAL WEATHER ROUNDUP
NATIONAL WEATHER SERVICE SEATTLE WA
400 AM PST TUE FEB 09 2016

NOTE:"FAIR" INDICATES FEW OR NO CLOUDS BELOW 12,000 FEET WITH NO
SIGNIFICANT WEATHER AND/OR OBSTRUCTIONS TO VISIBILITY.

WAZ505-507>509-091300-
SEATTLE, TACOMA, EVERETT, AND VICINITY

CITY           SKY/WX    TMP DP  RH WIND       PRES   REMARKS
EVERETT        PTCLDY    42  40  92 N5        30.21F FOG
6HR MIN TEMP:  42; 6HR MAX TEMP:  44;

BOEING FIELD   CLEAR     41  39  93 CALM      30.21F
6HR MIN TEMP:  40; 6HR MAX TEMP:  47; 6HR PCP: TRACE;

RENTON         CLEAR     42  40  92 VRB3      30.21F
6HR MIN TEMP:  42; 6HR MAX TEMP:  50;

SEATAC AIRPORT CLEAR     42  41  96 CALM      30.21F
6HR MIN TEMP:  42; 6HR MAX TEMP:  48;

JBLM-MCCHORD   PTCLDY    34  34 100 S2        30.21F
6HR MIN TEMP:  32; 6HR MAX TEMP:  38;

PUYALLUP       FOG       37  37 100 CALM      30.21F VSB 1/4
BREMERTON      CLEAR     39  39 100 CALM      30.25F
6HR MIN TEMP:  37; 6HR MAX TEMP:  48;

JBLM-FT LEWIS  FOG       33  33 100 SE6       30.21F VSB 3/4
6HR MIN TEMP:  33; 6HR MAX TEMP:  40;

TACOMA NARROWS PTCLDY    43  42  97 SE5       30.21F FOG
6HR MIN TEMP:  42; 6HR MAX TEMP:  48;

$$

WAZ001-503-506-510-514-515-091300-
NORTH INTERIOR

CITY           SKY/WX    TMP DP  RH WIND       PRES   REMARKS
BELLINGHAM     FOG       33  33 100 CALM      30.22F VSB 1/4
6HR MIN TEMP:  33; 6HR MAX TEMP:  40;

FRIDAY HARBOR  CLEAR     46  42  86 VRB5      30.23F
6HR MIN TEMP:  43; 6HR MAX TEMP:  47;

EASTSOUND      CLEAR     45  43  93 N7        30.22F
PORT ANGELES   FOG       36  35  96 CALM      30.22F VSB 1
6HR MIN TEMP:  35; 6HR MAX TEMP:  45;

EDIZ HOOK      FAIR      42  41  94 SW5       30.23F
6HR MIN TEMP:  42; 6HR MAX TEMP:  47;

PORT TOWNSEND  FOG       34  34 100 CALM      30.24S VSB 1/4
NAS WHIDBEY    FOG       37  37 100 E3        30.26F VSB 3/4
6HR MIN TEMP:  33; 6HR MAX TEMP:  42;

ARLINGTON      CLOUDY    34  28  80 N5        30.24F VSB<1/4
6HR MIN TEMP:  32; 6HR MAX TEMP:  41;

BURLINGTON     CLEAR     43  41  93 NW7       30.22F
$$

WAZ020-022-039-040-504-511-512-091300-
SOUTHWEST INTERIOR

CITY           SKY/WX    TMP DP  RH WIND       PRES   REMARKS
SHELTON        FOG       31  31 100 CALM      30.19F VSB 1/2
6HR MIN TEMP:  31; 6HR MAX TEMP:  39;

OLYMPIA        FOG       31  30  96 CALM      30.22S VSB 3/4
6HR MIN TEMP:  30; 6HR MAX TEMP:  39;

CHEHALIS       FOG       37  37 100 S3        30.22F VSB<1/4
KELSO          CLOUDY    39  37  93 CALM      30.25S VSB 1/4
6HR MIN TEMP:  37; 6HR MAX TEMP:  43;

VANCOUVER      CLEAR     37  33  85 CALM      30.22F
6HR MIN TEMP:  35; 6HR MAX TEMP:  40;

SCAPPOOSE, OR  CLEAR     38  37  97 W5        30.21F
6HR MIN TEMP:  37; 6HR MAX TEMP:  43;

PORTLAND, OR   CLEAR     49  36  61 E12       30.21F
6HR MIN TEMP:  45; 6HR MAX TEMP:  52;

$$

WAZ021-516-517-091300-
WASHINGTON COAST

CITY           SKY/WX    TMP DP  RH WIND       PRES   REMARKS
FORKS          CLEAR     47  41  80 E5        30.13F
6HR MIN TEMP:  43; 6HR MAX TEMP:  56;

HOQUIAM        CLEAR     47  43  86 E13       30.15F
6HR MIN TEMP:  47; 6HR MAX TEMP:  54;

ASTORIA, OR    CLEAR     51  41  68 E12       30.12F
6HR MIN TEMP:  50; 6HR MAX TEMP:  55;

$$

WAZ019-023-024-040-518-519-091300-
CASCADE MOUNTAINS AND COLUMBIA GORGE

CITY           SKY/WX    TMP DP  RH WIND       PRES   REMARKS
STAMPEDE PASS  NOT AVBL
TROUTDALE, OR  CLEAR     48  35  60 E32G38    30.22F
6HR MIN TEMP:  48; 6HR MAX TEMP:  51;

THE DALLES, OR CLEAR     33  30  88 CALM      30.50F
6HR MIN TEMP:  32; 6HR MAX TEMP:  37;

$$

WAZ026-027-041>044-520-521-091300-
EAST SLOPES

CITY           SKY/WX    TMP DP  RH WIND       PRES   REMARKS
OMAK           CLEAR     22  18  85 CALM      30.53F
6HR MIN TEMP:  19; 6HR MAX TEMP:  25;

WENATCHEE      CLEAR     28  25  88 W8        30.52F
6HR MIN TEMP:  27; 6HR MAX TEMP:  34;

ELLENSBURG     FOG       23  20  88 CALM      30.48F VSB 1/4
6HR MIN TEMP:  22; 6HR MAX TEMP:  30;

YAKIMA         CLEAR     30  25  81 W7        30.49F
6HR MIN TEMP:  30; 6HR MAX TEMP:  35;

$$

WAZ028-034-035-091300-
COLUMBIA BASIN

CITY           SKY/WX    TMP DP  RH WIND       PRES   REMARKS
EPHRATA        CLEAR     35  27  72 N8        30.48F
6HR MIN TEMP:  34; 6HR MAX TEMP:  37;

MOSES LAKE     CLEAR     31  28  89 N8        30.49F
6HR MIN TEMP:  30; 6HR MAX TEMP:  35;

PASCO          CLEAR     28  25  88 N3        30.51F
6HR MIN TEMP:  26; 6HR MAX TEMP:  34;

HERMISTON, OR  CLEAR     29  27  92 N3        30.48F
6HR MIN TEMP:  28; 6HR MAX TEMP:  33;

$$

WAZ036>038-091300-
NORTHEAST WASHINGTON

CITY           SKY/WX    TMP DP  RH WIND       PRES   REMARKS
SPOKANE GEIGER PTCLDY    32  28  85 NE9       30.47F
6HR MIN TEMP:  32; 6HR MAX TEMP:  37;

SPOKANE FELTS  CLEAR     29  27  92 CALM      30.50F
6HR MIN TEMP:  29; 6HR MAX TEMP:  35;

FAIRCHILD AFB  CLEAR     30  30  99 NE8       30.46F
6HR MIN TEMP:  30; 6HR MAX TEMP:  37;

COEURDALENE,ID CLEAR     30  28  93 NE12      30.47F WCI  21
6HR MIN TEMP:  30; 6HR MAX TEMP:  34;

DEER PARK      CLEAR     30  28  92 N5        30.49F
6HR MIN TEMP:  27; 6HR MAX TEMP:  33;

$$

WAZ029>033-091300-
SOUTHEAST WASHINGTON

CITY           SKY/WX    TMP DP  RH WIND       PRES   REMARKS
PULLMAN        CLEAR     41  32  70 E14       30.45F
6HR MIN TEMP:  40; 6HR MAX TEMP:  43;

LEWISTON, ID   CLEAR     42  33  70 E14       30.47S
6HR MIN TEMP:  41; 6HR MAX TEMP:  46;

WALLA WALLA    CLEAR     34  30  85 SE5       30.46F
6HR MIN TEMP:  34; 6HR MAX TEMP:  36;

PENDLETON, OR  CLEAR     30  29  96 CALM      30.44F FOG
6HR MIN TEMP:  29; 6HR MAX TEMP:  36;

$$



USA.gov is the U.S. government's official web portal to all federal, state and local government web resources and services.